Location: Newark
(39.6867°N, 100.6772°W)
Time: 00:40:15
(UTC+00:00)

Vanguard 1 - Pass Details

Date: 15 October 2019
Orbit: 652 x 3831 km, 34.2° (Epoch: 13 November)

Event Time Altitude Azimuth Distance (km) Brightness Sun altitude
Rises 05:47:59 0° 271° (W) 5,562 14.1 -57.4°
Reaches altitude 10° 05:51:00 10° 269° (W) 4,893 13.6 -57.6°
Enters shadow 05:53:35 20° 266° (W) 4,383 13.3 -57.8°
Maximum altitude 06:06:30 71° 189° (S) 3,421 - -58.3°
Exits shadow 06:28:33 13° 112° (ESE) 6,698 14.1 -58.7°
Drops below altitude 10° 06:29:48 10° 111° (ESE) 6,923 14.2 -58.7°
Sets 06:35:06 0° 110° (ESE) 7,867 14.6 -58.7°
